Location: Blue Pit
(43.1414°N, 93.2208°W)
Time: 23:45:09
(UTC+00:00)

CZ-3 R/B - Pass Details

Date: 18 November 2025
Orbit: 547 x 10008 km, 28.3° (Epoch: 13 December)

Event Time Altitude Azimuth Distance (km) Brightness Sun altitude
Exits shadow 12:07:29 - 258° (WSW) 6,986 5.4 -11.4°
Reaches altitude 10° 12:12:11 10° 252° (WSW) 5,383 4.8 -10.6°
Maximum altitude 12:21:55 26° 202° (SSW) 2,313 3.4 -8.9°
Drops below altitude 10° 12:26:33 10° 145° (SE) 2,443 4.5 -8.1°
Sets 12:28:40 0° 130° (SE) 3,053 5.7 -7.8°
